Wind_Speed
12 11 10 10 10 9 9 9 9 8 8 8 8 8 8 8 8 8 7 7 7 7 7 7 7 7 7 7 7 8 8 8 9 10 11 12 13 14 14 15 15 16 17
10 10 10 10 9 10 9 10 10 10 10 9 9 9 9 9 9 9 9 8 8 8 8 8 8 8 8 8 9 9 10 10 11 12 13 14 15 15 16 17 17 17 17
10 11 11 11 10 10 10 10 10 11 11 11 10 10 10 9 9 9 9 9 9 10 10 10 10 10 10 10 11 11 12 12 13 14 14 15 16 16 17 18 18 19 20
11 11 11 11 11 11 11 11 11 12 12 12 12 12 12 11 11 11 10 10 11 11 12 12 12 12 12 13 13 14 14 15 15 16 17 17 18 19 20 20 20 21 22
12 12 13 12 12 13 13 13 13 13 13 13 13 13 13 13 13 12 12 12 12 13 13 14 14 14 14 15 16 16 17 18 18 19 19 20 20 21 22 22 23 24 24
14 14 13 13 13 13 13 14 14 14 14 14 14 14 14 14 13 13 14 14 14 15 15 16 16 16 17 18 18 19 20 20 21 22 22 22 23 24 25 25 26 27 27
14 14 14 14 13 14 14 15 15 15 15 15 15 15 15 15 15 15 15 15 16 16 17 18 18 19 20 20 21 21 22 23 24 24 25 25 26 27 28 28 29 30 31
15 15 15 15 15 15 15 16 16 16 16 16 16 16 16 16 16 16 17 17 18 18 19 20 20 21 22 23 23 24 24 25 26 27 27 28 28 29 30 31 32 33 34
16 16 16 16 16 16 17 17 17 17 17 17 16 17 17 18 18 19 19 20 20 21 22 22 23 24 25 26 26 27 27 28 28 29 30 31 32 33 34 35 35 36 37
17 17 17 17 18 18 18 18 18 18 17 17 17 18 19 20 20 21 22 22 23 24 25 26 27 28 28 29 29 30 30 30 31 32 33 34 35 36 37 38 39 40 40
18 18 18 18 18 19 20 19 19 19 19 19 19 20 21 21 22 23 24 25 25 26 27 28 29 30 31 31 32 33 33 34 35 36 36 37 38 39 39 40 41 42 43
17 18 18 19 20 20 21 21 20 20 21 21 22 22 23 23 24 25 26 27 28 29 29 30 31 32 32 33 34 35 36 37 38 39 39 39 40 41 42 42 43 44 45
18 19 19 20 20 20 20 20 21 22 23 23 23 24 24 25 26 28 28 29 30 31 32 33 34 34 35 36 37 38 39 40 41 41 42 42 43 43 44 45 46 47 48
19 20 21 21 21 21 21 22 23 23 24 25 25 26 27 28 29 30 31 31 32 33 34 35 36 37 38 39 40 41 41 42 43 44 44 45 46 46 47 48 49 50 51
21 21 22 22 22 22 23 24 24 25 26 27 28 29 29 30 31 32 33 34 34 35 36 37 38 39 40 41 42 42 43 44 45 46 47 48 48 49 50 51 52 52 53
22 23 23 24 24 25 25 26 26 27 28 29 29 30 31 31 32 33 34 36 37 38 38 39 40 41 42 43 43 44 46 47 48 49 49 50 51 52 52 53 54 54 55
24 25 25 25 26 26 27 28 28 29 29 30 31 31 32 33 34 36 37 38 39 39 40 41 42 43 44 45 46 47 48 49 50 51 52 52 53 54 54 55 55 56 57
26 27 27 27 28 28 29 29 30 30 31 31 32 33 34 36 36 37 38 39 40 41 41 42 43 44 45 46 48 49 50 51 51 52 53 53 54 55 55 56 56 57 58
28 28 28 29 29 30 30 30 31 31 32 33 34 35 36 37 38 39 39 40 41 41 42 43 44 45 47 48 49 50 51 52 52 53 53 54 54 55 56 57 58 58 59
29 29 30 30 30 31 31 31 32 33 34 35 36 37 38 38 39 40 40 41 42 43 44 45 46 47 48 49 50 50 51 52 52 53 54 55 56 57 58 58 59 59 60
31 31 31 32 32 32 33 33 34 35 36 36 37 38 39 39 40 41 42 43 44 45 46 47 47 48 49 50 50 51 51 52 53 54 55 56 57 58 58 59 59 60 60
31 32 32 33 33 34 34 35 36 37 38 38 39 40 41 42 42 43 44 45 46 47 47 48 48 49 50 50 51 52 53 54 55 55 56 57 58 58 58 59 59 60 60
32 33 34 35 36 36 37 38 39 39 40 41 41 42 43 44 44 45 45 46 47 48 48 49 50 51 52 53 53 54 55 55 56 56 57 57 58 57 57 58 58 58 58
34 35 36 36 37 38 39 40 40 41 42 42 43 43 44 45 45 46 47 48 48 49 50 50 51 52 53 54 54 55 56 56 56 57 57 57 57 57 57 57 56 55 55
35 36 37 37 38 39 40 41 42 42 43 44 44 45 45 46 47 48 48 49 49 50 51 52 53 54 55 55 55 56 56 57 57 57 57 57 56 55 55 54 53 52 52
37 37 38 39 40 40 41 42 43 43 44 44 45 46 47 48 49 49 50 50 51 52 52 53 54 55 55 55 56 56 56 56 55 55 55 54 53 52 52 51 50 50 50
Wind_Direction
245 246 249 251 253 255 258 260 263 266 268 272 278 283 288 292 289 287 283 279 273 271 275 276 276 278 281 280 281 281 283 285 286 284 284 283 284 282 280 280 283 284 284
245 246 247 249 254 258 261 263 264 266 269 272 277 280 283 287 286 282 279 277 275 276 280 280 281 283 284 283 285 287 286 289 291 290 286 284 284 284 284 284 285 286 287
246 246 247 249 252 257 262 265 266 268 270 271 272 277 281 281 280 278 278 275 275 278 278 278 277 278 281 282 283 285 288 289 291 292 292 292 291 290 290 289 290 290 289
249 250 251 252 254 257 261 266 269 271 272 271 271 273 275 277 276 273 273 275 276 277 278 278 278 277 279 282 284 286 287 287 290 291 290 290 291 291 291 291 291 293 292
256 258 255 255 257 260 263 266 269 272 272 271 272 271 272 273 273 273 273 273 276 278 280 281 279 278 280 283 285 286 288 288 289 291 290 290 290 290 290 290 290 291 292
262 262 258 260 262 264 266 266 270 273 272 272 272 271 270 270 271 272 272 274 277 279 280 281 280 280 281 283 285 286 288 290 289 290 290 290 290 290 290 290 291 291 292
265 263 261 261 264 266 267 269 273 275 274 273 272 271 269 268 269 271 272 275 277 278 280 280 281 281 282 285 285 286 287 288 289 289 290 291 291 291 291 290 290 290 291
266 266 266 264 266 269 270 270 272 275 274 273 274 272 271 270 270 271 273 275 277 278 279 281 281 281 283 284 285 286 287 288 289 289 289 290 291 291 291 291 291 290 291
269 269 268 267 269 271 273 273 273 273 274 273 273 273 273 272 272 272 274 275 277 280 281 281 281 282 283 283 285 286 286 288 288 289 289 290 290 291 291 291 290 290 291
271 270 269 270 271 272 273 274 275 274 273 274 275 275 275 275 275 275 275 276 278 280 281 281 282 282 283 284 284 285 286 287 288 289 289 290 290 290 291 291 291 291 291
271 271 271 272 273 273 274 274 274 274 273 274 275 276 277 278 278 278 278 279 280 281 282 282 283 283 283 283 284 285 286 287 288 288 289 289 289 290 290 290 290 291 291
272 273 274 274 275 275 275 275 275 275 275 275 276 277 278 280 281 281 280 280 281 282 283 283 283 284 284 284 284 285 286 287 288 288 288 289 289 289 289 289 289 290 291
270 272 273 277 276 275 275 276 277 277 277 276 277 279 280 282 283 283 282 283 283 283 284 284 284 284 285 285 286 286 286 287 287 288 288 288 289 289 289 289 290 290 291
272 273 274 276 277 276 277 279 281 281 279 277 279 281 282 283 283 283 284 284 285 285 285 285 285 286 286 287 287 287 287 287 287 288 288 289 289 289 290 290 290 290 291
277 277 277 278 278 280 282 283 283 283 284 283 282 282 283 284 283 283 284 284 285 286 286 287 287 288 288 288 288 288 287 287 288 288 288 289 289 290 290 291 291 290 290
278 279 279 279 280 281 282 283 283 283 284 284 283 283 284 284 284 285 286 286 286 287 288 288 288 288 288 288 288 288 288 288 288 288 288 289 290 290 291 291 291 291 291
279 280 280 281 282 282 282 282 282 283 284 284 284 284 285 285 285 286 287 287 288 288 289 289 290 289 289 290 289 289 289 289 289 289 289 290 290 290 291 291 291 291 291
279 280 281 282 283 284 284 284 284 283 284 284 285 285 286 286 287 288 288 288 289 290 290 291 291 291 291 291 291 291 291 291 290 290 290 291 291 291 291 292 291 291 291
278 280 281 282 283 284 285 285 286 286 286 286 286 286 287 287 288 289 289 289 290 291 291 292 292 293 293 292 292 292 292 292 292 292 292 292 292 292 292 292 292 292 292
279 280 281 282 283 284 285 286 287 288 288 288 288 288 288 290 290 290 290 290 291 292 292 292 293 293 293 293 293 294 294 294 293 293 293 293 293 293 292 292 292 292 292
279 280 281 282 283 284 285 286 287 288 288 289 289 290 290 291 291 291 291 291 292 292 293 293 293 294 294 294 294 294 294 295 295 295 295 294 293 293 292 292 292 292 292
280 280 281 282 283 284 285 287 288 289 290 290 290 290 291 291 291 291 292 292 292 293 293 293 293 294 294 294 295 295 295 295 295 295 295 295 295 294 293 292 292 292 292
280 282 283 284 284 285 286 287 288 289 289 290 290 291 291 291 292 292 292 292 293 293 293 294 294 294 294 295 295 295 295 295 295 296 296 296 296 295 294 294 293 293 293
282 284 285 285 286 287 287 288 289 289 290 291 291 292 292 292 292 292 293 293 294 294 294 295 295 295 296 296 296 296 296 296 296 296 296 296 296 295 294 294 294 293 293
283 285 286 287 288 288 289 289 289 290 290 291 292 293 293 293 293 293 294 294 294 295 295 296 296 296 295 295 295 296 296 296 296 296 296 297 297 296 295 295 294 293 293
283 285 285 286 287 289 290 291 291 291 291 292 293 294 294 294 295 295 295 295 296 296 296 297 297 297 296 296 296 295 296 296 296 296 296 296 297 296 295 295 294 293 292
Height
5875 5875 5876 5876 5876 5876 5876 5876 5876 5876 5875 5875 5874 5873 5872 5871 5870 5869 5868 5868 5868 5868 5869 5869 5869 5869 5868 5868 5867 5867 5866 5866 5865 5864 5863 5862 5861 5860 5859 5858 5857 5856 5855
5873 5873 5873 5874 5874 5874 5874 5873 5873 5873 5872 5872 5871 5870 5869 5868 5867 5867 5866 5866 5866 5866 5867 5867 5867 5867 5866 5866 5865 5865 5864 5863 5862 5861 5860 5859 5858 5857 5856 5855 5853 5852 5851
5870 5871 5871 5871 5871 5871 5871 5871 5870 5870 5869 5868 5868 5867 5866 5865 5865 5864 5864 5864 5864 5864 5864 5864 5864 5864 5864 5863 5863 5862 5861 5860 5859 5858 5856 5855 5854 5853 5851 5850 5849 5847 5846
5868 5868 5868 5868 5868 5868 5868 5868 5867 5866 5866 5865 5864 5863 5863 5862 5862 5862 5862 5862 5862 5862 5862 5861 5861 5861 5861 5860 5859 5858 5857 5856 5855 5853 5852 5851 5850 5848 5847 5845 5844 5842 5840
5865 5865 5865 5865 5865 5865 5864 5864 5863 5863 5862 5861 5860 5860 5859 5859 5858 5858 5859 5859 5859 5858 5858 5858 5858 5857 5857 5856 5855 5854 5853 5852 5850 5849 5847 5846 5844 5842 5841 5839 5838 5836 5834
5861 5861 5861 5861 5861 5861 5861 5860 5860 5859 5858 5857 5856 5856 5855 5855 5855 5855 5855 5855 5855 5855 5854 5854 5853 5853 5852 5851 5850 5849 5848 5846 5845 5843 5841 5840 5838 5836 5834 5833 5831 5829 5827
5858 5858 5857 5857 5857 5857 5857 5856 5855 5855 5854 5853 5852 5852 5851 5851 5851 5851 5851 5851 5851 5850 5850 5849 5849 5848 5847 5846 5845 5843 5842 5840 5839 5837 5835 5833 5831 5829 5827 5825 5823 5821 5819
5854 5854 5854 5853 5853 5853 5852 5852 5851 5850 5849 5849 5848 5848 5847 5847 5847 5847 5847 5846 5846 5845 5845 5844 5843 5842 5841 5840 5839 5837 5836 5834 5831 5829 5828 5826 5823 5821 5819 5816 5814 5812 5810
5849 5849 5849 5849 5849 5848 5848 5847 5846 5846 5845 5844 5844 5843 5843 5843 5842 5842 5842 5841 5841 5840 5839 5838 5837 5836 5835 5833 5832 5830 5828 5826 5824 5822 5819 5817 5814 5812 5809 5807 5804 5802 5799
5845 5844 5844 5844 5844 5843 5843 5842 5842 5841 5840 5840 5839 5838 5838 5837 5837 5837 5836 5835 5834 5833 5832 5831 5830 5829 5827 5825 5823 5822 5820 5818 5815 5813 5810 5808 5805 5802 5799 5796 5793 5790 5788
5840 5840 5839 5839 5838 5838 5837 5837 5837 5836 5835 5835 5834 5833 5833 5832 5831 5830 5829 5828 5827 5826 5825 5823 5822 5820 5818 5816 5814 5812 5810 5808 5805 5803 5800 5797 5794 5792 5788 5785 5782 5779 5775
5835 5835 5834 5834 5833 5833 5832 5831 5831 5830 5829 5829 5828 5827 5826 5825 5824 5823 5822 5821 5819 5818 5816 5815 5813 5811 5809 5807 5804 5802 5799 5797 5794 5792 5789 5786 5783 5780 5777 5773 5770 5766 5762
5830 5829 5829 5828 5827 5827 5826 5825 5825 5824 5823 5822 5822 5821 5819 5818 5817 5816 5814 5813 5811 5809 5807 5805 5803 5801 5799 5796 5794 5791 5788 5785 5782 5780 5777 5774 5771 5767 5764 5760 5756 5753 5749
5824 5824 5823 5822 5821 5820 5819 5819 5818 5817 5816 5815 5814 5813 5812 5810 5809 5807 5805 5803 5801 5799 5797 5795 5793 5790 5787 5785 5782 5779 5776 5773 5770 5767 5764 5761 5757 5753 5750 5746 5742 5738 5734
5818 5817 5816 5815 5815 5814 5813 5812 5811 5810 5808 5807 5806 5805 5803 5802 5800 5798 5795 5794 5791 5789 5786 5784 5782 5779 5776 5772 5769 5766 5763 5760 5757 5753 5750 5746 5743 5739 5735 5731 5726 5722 5718
5811 5810 5809 5808 5807 5807 5805 5804 5803 5802 5800 5799 5797 5795 5794 5792 5789 5787 5785 5783 5780 5777 5775 5772 5769 5766 5763 5759 5756 5753 5749 5746 5742 5739 5735 5731 5727 5723 5719 5714 5710 5705 5701
5804 5803 5802 5801 5800 5799 5797 5796 5795 5793 5791 5790 5788 5786 5784 5781 5779 5777 5774 5771 5768 5765 5762 5759 5756 5753 5749 5746 5742 5738 5735 5731 5727 5723 5719 5715 5711 5706 5702 5697 5692 5688 5684
5796 5795 5794 5793 5792 5790 5789 5787 5785 5784 5782 5780 5778 5776 5773 5771 5768 5765 5762 5759 5756 5753 5749 5746 5742 5739 5735 5731 5727 5723 5719 5715 5711 5707 5703 5698 5694 5689 5685 5680 5675 5670 5665
5788 5787 5785 5784 5782 5781 5779 5778 5776 5774 5772 5770 5767 5765 5762 5759 5756 5753 5750 5746 5743 5740 5736 5732 5729 5725 5720 5716 5712 5708 5703 5699 5695 5690 5686 5682 5677 5672 5667 5662 5657 5652 5647
5779 5777 5776 5775 5773 5771 5770 5768 5766 5764 5761 5759 5756 5753 5750 5747 5744 5741 5737 5734 5730 5726 5723 5719 5715 5710 5706 5701 5696 5692 5688 5683 5679 5674 5669 5665 5660 5655 5650 5644 5639 5634 5628
5769 5768 5767 5765 5764 5762 5760 5758 5755 5753 5750 5747 5745 5742 5738 5735 5732 5728 5725 5721 5717 5713 5709 5704 5700 5696 5691 5686 5681 5677 5672 5667 5662 5657 5652 5647 5642 5637 5631 5626 5620 5615 5610
5759 5758 5757 5755 5753 5751 5749 5747 5744 5742 5739 5736 5733 5730 5726 5723 5719 5715 5711 5707 5703 5699 5694 5690 5686 5681 5676 5671 5666 5661 5656 5651 5646 5641 5635 5630 5624 5619 5613 5607 5602 5596 5590
5749 5748 5746 5744 5742 5740 5738 5735 5733 5730 5727 5723 5720 5717 5713 5709 5706 5702 5697 5693 5689 5684 5680 5675 5671 5666 5661 5655 5650 5645 5640 5635 5629 5624 5618 5612 5606 5600 5594 5589 5583 5577 5572
5739 5737 5735 5733 5731 5729 5726 5723 5720 5717 5714 5710 5707 5703 5699 5695 5691 5687 5683 5679 5674 5670 5665 5660 5655 5650 5645 5639 5634 5628 5623 5617 5612 5606 5600 5594 5588 5582 5577 5571 5565 5559 5554
5728 5726 5724 5722 5719 5717 5714 5711 5708 5704 5701 5697 5694 5690 5686 5681 5677 5673 5668 5664 5659 5654 5649 5644 5639 5634 5628 5623 5617 5611 5606 5600 5594 5588 5582 5577 5571 5565 5559 5553 5548 5543 5538
5716 5714 5712 5709 5707 5704 5701 5698 5695 5691 5688 5684 5680 5676 5672 5667 5662 5658 5653 5648 5644 5639 5633 5628 5622 5617 5611 5606 5600 5594 5588 5583 5577 5571 5565 5560 5554 5548 5543 5537 5532 5527 5522